"Pseudo-MPEC" for C1RTW82

Created 2020 Jan 15 22:07:03 UT using Find_Orb

Click here for an explanation of pseudo-MPECs

 
 Astrometry: 
     C1RTW82  C2020 01 14.22933 07 14 31.56 +12 36 43.5    ~1E6b 20.3 GVNEOCPG96
     C1RTW82  C2020 01 14.23517 07 14 31.46 +12 36 53.5    ~1E6b 20.4 GVNEOCPG96
     C1RTW82  C2020 01 14.24101 07 14 31.36 +12 37 03.9    ~1E6b 20.1 GVNEOCPG96
     C1RTW82  C2020 01 14.24685 07 14 31.27 +12 37 14.4    ~1E6b 20.3 GVNEOCPG96
     C1RTW82  C2020 01 14.29660607 14 30.36 +12 38 41.4    ~1E7q 19.8 GVNEOCPH01
     C1RTW82  C2020 01 14.31172107 14 30.12 +12 39 07.9    ~1E7q 19.7 GVNEOCPH01
     C1RTW82 KC2020 01 14.31901 07 14 30.13 +12 39 22.1    ~1EAM 19.6 RoNEOCP691
     C1RTW82  C2020 01 14.31927507 14 30.00 +12 39 21.2    ~1E7q 19.9 GVNEOCPH01
     C1RTW82  C2020 01 14.32269307 14 29.94 +12 39 27.2    ~1E7q 19.9 GVNEOCPH01
     C1RTW82 KC2020 01 14.33052 07 14 29.93 +12 39 42.5    ~1EAM 20.0 RoNEOCP691
     C1RTW82 KC2020 01 14.34198 07 14 29.76 +12 40 02.3    ~1EAM 19.9 RoNEOCP691
     C1RTW82  C2020 01 14.36324 07 14 29.35 +12 40 38.6    ~1E97 20.6 GVNEOCPI52
     C1RTW82  C2020 01 14.36400 07 14 29.37 +12 40 40.2    ~1E97 20.5 GVNEOCPI52
     C1RTW82  C2020 01 14.36620 07 14 29.32 +12 40 44.1    ~1E97 20.1 GVNEOCPI52
     C1RTW82  C2020 01 14.36697 07 14 29.35 +12 40 45.4    ~1E97 19.7 GVNEOCPI52
     C1RTW82  C2020 01 15.21474 07 14 26.55 +13 05 34.8    ~1F6b 19.8 GVNEOCPG96
     C1RTW82  C2020 01 15.22466 07 14 26.34 +13 05 52.1    ~1F6b 20.2 GVNEOCPG96
     C1RTW82  C2020 01 15.25066 07 14 26.00 +13 06 38.7    ~1F6M       VNEOCPI52
     C1RTW82  C2020 01 15.25160 07 14 25.96 +13 06 39.4    ~1F6b 20.2 GVNEOCPG96
     C1RTW82  C2020 01 15.25294 07 14 25.94 +13 06 41.7    ~1F6M 19.8 GVNEOCPI52
     C1RTW82  C2020 01 15.25405 07 14 25.93 +13 06 43.8    ~1F6M 19.8 GVNEOCPI52
     C1RTW82  C2020 01 15$QC!t%h=hot[rfJy,Astrometry#2TCKjlZOEkW$BBwt!?7i4n=o246
     C1RTW82  C2020 01 15f*s?jwQytVi@jsf[PjWPfredacted;.click%gMpVhere;dNe*X^246
     C1RTW82  C2020 01 15IH[!!/1kPd7:`oDLW#9_tI^wei/J82_m3o%$E[B;r6!A[MS^@82C246
     C1RTW82  C2020 01 158qAX:*\RAPjYTi:Q*fg_bf;;,SforM*EDKW^/9kexplanationL5246

Station data:
(246) Klet Observatory-KLENOT  (N48.863293 E14.288100)  Czech Republic.
   1.06-m KLENOT telescope.
(691) Steward Observatory, Kitt Peak - Spacewatch  (N31.962174 W111.600327)
   US/Arizona.  Observer J. V. Scotti. 0.9-m f/3 reflector + CCD.
(G96) Mt. Lemmon Survey  (N32.442754 W110.788720)  US/Arizona.  Observers T.
   A. Pruyne, B. M. Africano, E. J. Christensen, G. A. Farneth, D. C. Fuls,
   A. R. Gibbs, A. D. Grauer, H. Gröller, J. A. Johnson, R. A. Kowalski, S.
   M. Larson, G. J. Leonard, D. Rankin, R. L. Seaman, F. C. Shelly. 1.5-m
   reflector + 10K CCD.
(H01) Magdalena Ridge Observatory, Socorro  (N33.984833 W107.189333)  US/New
   Mexico.  Observers W. H. Ryan, E. V. Ryan. Measurer W. H. Ryan. 2.4-m
   f/8.9 reflector + CCD.
(I52) Steward Observatory, Mt. Lemmon Station  (N32.442547 W110.788920)
   US/Arizona.  Observers T. A. Pruyne, B. M. Africano, E. J. Christensen, G.
   A. Farneth, D. C. Fuls, A. R. Gibbs, A. D. Grauer, H. Gröller, J. A.
   Johnson, R. A. Kowalski, S. M. Larson, G. J. Leonard, D. Rankin, R. L.
   Seaman, F. C. Shelly. 1.0-m reflector + CCD.

Orbital elements:  C1RTW82
   Perihelion 2019 Dec 6.013598 +/- 1.65 TT =  0:19:34 (JD 2458823.513598)
Epoch 2020 Jan 15.0 TT = JDT 2458863.5   Earth MOID: 0.2657   AutoNEOCP
M  17.39609134 +/- 0.6              (J2000 ecliptic)
n   0.43505018 +/- 0.00879          Peri.  311.64323 +/- 1.4
a   1.72494987 +/- 0.0232           Node   128.90670 +/- 0.13
e   0.2871987 +/- 0.00754           Incl.    7.59811 +/- 0.16
P   2.27/827.48d           H 21.9   G  0.15   U  9.6  
q 1.22954642 +/- 0.00575    Q 2.22035331 +/- 0.043
From 25 observations 2020 Jan. 14-15 (39.4 hr); mean residual 0".51
Residuals in arcseconds: 
200114 G96  .09-  .17+    200114 691  .03-  .45+    200115 G96  .21+  .26-    
200114 G96  .20-  .19-    200114 691  .22+  .17+    200115 I52  .21+  .32-    
200114 G96  .30-  .14-    200114 I52  .55-  .42-    200115 I52  .32+  .18-    
200114 G96  .25-  .01+    200114 I52  .08-  .14-    200115 246  .17+  1.2-    
200114 H01  .02-  .07-    200114 I52  .31-  .08-    200115 246  1.0+  .32-    
200114 H01  .07+  .11-    200114 I52  .30+  .13-    200115 246  .21+  .74+    
200114 691  .13+  .24+    200115 G96  .79+  .21+    200115 246  2.4-  .74+    
200114 H01  .11+  .06-    200115 G96  .17-  .03-    
200114 H01  .04+  .05-    200115 I52  .58+  .69+    

Ephemerides (geocentric):
Date (UTC) HH   RA              Dec         delta   r     elong  mag " sig PA
---- -- -- --  -------------   -----------  ------ ------ -----  --- ---- ---
2020 01 15 22  07 14 22.531   +13 26 12.67  .29534 1.2747 169.0 20.4 .467 152
2020 01 15 23  07 14 22.360   +13 27 25.38  .29544 1.2748 169.0 20.4 .484 152
2020 01 16 00  07 14 22.191   +13 28 38.06  .29553 1.2749 168.9 20.4 .501 153
2020 01 16 01  07 14 22.023   +13 29 50.73  .29563 1.2750 168.9 20.4 .519 154
2020 01 16 02  07 14 21.857   +13 31 03.37  .29573 1.2751 168.9 20.4 .537 154
2020 01 16 03  07 14 21.694   +13 32 15.99  .29582 1.2752 168.9 20.4 .556 155
2020 01 16 04  07 14 21.532   +13 33 28.60  .29592 1.2753 168.9 20.4 .575 155
2020 01 16 05  07 14 21.371   +13 34 41.18  .29602 1.2753 168.9 20.4 .595 156
2020 01 16 06  07 14 21.213   +13 35 53.74  .29611 1.2754 168.9 20.4 .616 157
2020 01 16 07  07 14 21.057   +13 37 06.28  .29621 1.2755 168.9 20.4 .637 157
2020 01 16 08  07 14 20.902   +13 38 18.80  .29631 1.2756 168.8 20.4 .658 158
2020 01 16 09  07 14 20.749   +13 39 31.30  .29641 1.2757 168.8 20.4 .680 158
2020 01 16 10  07 14 20.598   +13 40 43.77  .29651 1.2758 168.8 20.4 .703 159
2020 01 16 11  07 14 20.449   +13 41 56.23  .29660 1.2759 168.8 20.4 .726 160
2020 01 16 12  07 14 20.302   +13 43 08.66  .29670 1.2760 168.8 20.4 .750 160
2020 01 16 13  07 14 20.157   +13 44 21.07  .29680 1.2761 168.8 20.4 .774 161
2020 01 16 14  07 14 20.014   +13 45 33.45  .29690 1.2762 168.8 20.4 .799 161
2020 01 16 15  07 14 19.873   +13 46 45.82  .29700 1.2762 168.7 20.4 .824 162
2020 01 16 16  07 14 19.733   +13 47 58.16  .29710 1.2763 168.7 20.4 .850 162
2020 01 16 17  07 14 19.596   +13 49 10.48  .29720 1.2764 168.7 20.4 .876 163
2020 01 16 18  07 14 19.460   +13 50 22.77  .29730 1.2765 168.7 20.4 .903 164
2020 01 16 19  07 14 19.327   +13 51 35.05  .29740 1.2766 168.7 20.4 .931 164
2020 01 16 20  07 14 19.195   +13 52 47.29  .29750 1.2767 168.7 20.4 .959 165
2020 01 16 21  07 14 19.066   +13 53 59.52  .29760 1.2768 168.6 20.4 .988 165
2020 01 16 22  07 14 18.938   +13 55 11.72  .29771 1.2769 168.6 20.4 1.02 166
2020 01 16 23  07 14 18.813   +13 56 23.90  .29781 1.2770 168.6 20.4 1.05 166
2020 01 17 00  07 14 18.689   +13 57 36.05  .29791 1.2771 168.6 20.4 1.08 167
2020 01 17 01  07 14 18.568   +13 58 48.18  .29801 1.2771 168.6 20.4 1.11 167
2020 01 17 02  07 14 18.448   +14 00 00.28  .29811 1.2772 168.6 20.4 1.14 167
2020 01 17 03  07 14 18.331   +14 01 12.36  .29822 1.2773 168.5 20.4 1.17 168
2020 01 17 04  07 14 18.215   +14 02 24.41  .29832 1.2774 168.5 20.4 1.20 168
2020 01 17 05  07 14 18.102   +14 03 36.44  .29842 1.2775 168.5 20.4 1.24 169
2020 01 17 06  07 14 17.991   +14 04 48.44  .29852 1.2776 168.5 20.4 1.27 169
2020 01 17 07  07 14 17.881   +14 06 00.42  .29863 1.2777 168.5 20.4 1.30 170
2020 01 17 08  07 14 17.774   +14 07 12.37  .29873 1.2778 168.5 20.4 1.34 170
2020 01 17 09  07 14 17.669   +14 08 24.30  .29884 1.2779 168.4 20.4 1.37 171
2020 01 17 10  07 14 17.566   +14 09 36.20  .29894 1.2780 168.4 20.4 1.41 171
2020 01 17 11  07 14 17.465   +14 10 48.08  .29904 1.2781 168.4 20.4 1.45 171
2020 01 17 12  07 14 17.367   +14 11 59.92  .29915 1.2781 168.4 20.4 1.48 172
2020 01 17 13  07 14 17.270   +14 13 11.75  .29925 1.2782 168.4 20.4 1.52 172
2020 01 17 14  07 14 17.176   +14 14 23.54  .29936 1.2783 168.3 20.5 1.56 172
2020 01 17 15  07 14 17.083   +14 15 35.31  .29946 1.2784 168.3 20.5 1.60 173
2020 01 17 16  07 14 16.993   +14 16 47.05  .29957 1.2785 168.3 20.5 1.64 173
2020 01 17 17  07 14 16.905   +14 17 58.76  .29968 1.2786 168.3 20.5 1.68 174
2020 01 17 18  07 14 16.819   +14 19 10.45  .29978 1.2787 168.3 20.5 1.72 174
2020 01 17 19  07 14 16.736   +14 20 22.11  .29989 1.2788 168.2 20.5 1.76 174
2020 01 17 20  07 14 16.654   +14 21 33.74  .30000 1.2789 168.2 20.5 1.80 175
2020 01 17 21  07 14 16.575   +14 22 45.34  .30010 1.2790 168.2 20.5 1.84 175